Total_Precipitation_Accumulation
1.41 1.43 1.42 1.40 1.31 1.29 1.31 1.28 1.25 1.24 1.27 1.23 1.13 1.07 1.15 1.14 1.08 1.14 1.19 1.26 1.34 1.50 1.65 1.78 1.94 2.20 2.50 2.54 2.52 2.43 2.36 2.26 2.00 1.78 1.58 1.47 1.75 1.84 1.75 1.63 1.60 1.56 1.33
1.34 1.37 1.35 1.25 1.17 1.17 1.16 1.07 0.95 0.90 0.90 1.00 1.10 1.03 1.01 1.04 1.06 1.12 1.11 1.14 1.20 1.33 1.45 1.58 1.76 2.04 2.39 2.60 2.70 2.59 2.46 2.36 2.21 2.04 1.70 1.45 1.54 1.86 1.98 1.90 1.71 1.55 1.40
1.34 1.23 1.13 1.06 1.06 1.09 1.02 0.94 0.89 0.78 0.72 0.73 0.82 0.82 0.91 1.01 1.03 1.07 1.09 1.12 1.16 1.25 1.41 1.49 1.54 1.75 1.95 2.14 2.33 2.46 2.44 2.44 2.41 2.16 1.85 1.58 1.51 1.66 1.90 1.88 1.81 1.80 1.56
1.41 1.32 1.19 1.09 1.06 1.04 1.00 0.97 0.90 0.84 0.81 0.81 0.91 0.94 0.89 0.89 0.94 1.02 1.07 1.05 1.05 1.07 1.15 1.26 1.36 1.43 1.62 1.75 1.86 2.08 2.28 2.53 2.59 2.43 2.17 1.84 1.72 1.60 1.67 1.84 1.90 1.86 1.77
1.42 1.41 1.27 1.21 1.17 1.05 0.99 1.00 0.97 0.97 0.90 0.87 0.95 1.04 1.08 1.04 1.02 1.08 1.04 1.03 1.05 1.03 1.07 1.07 1.14 1.21 1.29 1.48 1.52 1.74 2.05 2.35 2.44 2.52 2.39 2.08 1.82 1.65 1.40 1.50 1.76 1.99 1.99
1.09 1.19 1.16 1.07 0.97 0.95 0.96 0.94 0.90 0.88 0.83 0.77 0.77 0.81 0.90 0.98 1.25 1.19 0.97 0.90 0.96 1.01 1.06 1.05 1.08 1.05 1.03 1.12 1.26 1.37 1.65 1.89 2.03 2.12 2.15 1.98 1.76 1.63 1.58 1.53 1.60 1.74 1.79
0.84 0.96 0.95 0.90 0.81 0.81 0.85 0.83 0.78 0.72 0.72 0.67 0.66 0.63 0.66 0.86 1.01 0.82 0.79 0.78 0.89 1.00 1.08 1.13 1.10 1.04 1.08 1.08 1.12 1.14 1.19 1.39 1.61 1.83 1.86 1.75 1.82 1.73 1.65 1.53 1.54 1.54 1.51
0.59 0.67 0.70 0.71 0.69 0.70 0.70 0.71 0.75 0.70 0.64 0.61 0.64 0.69 0.69 0.74 0.85 0.71 0.66 0.71 0.89 1.02 1.02 1.00 1.09 1.12 1.16 1.22 1.14 1.18 1.12 1.11 1.22 1.25 1.39 1.64 1.81 1.98 1.95 1.83 1.82 1.74 1.64
0.42 0.46 0.51 0.53 0.57 0.62 0.64 0.67 0.78 0.77 0.71 0.69 0.77 0.82 0.75 0.71 0.79 0.75 0.76 0.82 0.94 1.03 0.99 1.01 1.11 1.16 1.33 1.39 1.28 1.32 1.27 1.23 1.23 1.34 1.43 1.55 1.67 1.78 1.94 1.96 1.90 1.88 1.74
0.39 0.40 0.45 0.46 0.49 0.55 0.63 0.65 0.63 0.62 0.65 0.70 0.72 0.67 0.66 0.73 0.85 0.80 0.86 0.97 1.07 1.18 1.14 1.15 1.38 1.35 1.35 1.29 1.22 1.37 1.33 1.20 1.13 1.17 1.23 1.33 1.38 1.49 1.63 1.68 1.83 1.94 1.84
0.42 0.43 0.43 0.44 0.46 0.50 0.50 0.47 0.48 0.53 0.53 0.51 0.52 0.57 0.61 0.75 0.81 0.85 1.02 1.05 1.10 1.25 1.27 1.24 1.20 1.37 1.31 1.23 1.21 1.22 1.35 1.26 1.17 1.21 1.21 1.21 1.24 1.29 1.35 1.42 1.56 1.73 1.82
0.36 0.36 0.35 0.35 0.37 0.39 0.41 0.38 0.38 0.44 0.47 0.48 0.52 0.55 0.59 0.64 0.70 0.76 0.90 1.00 1.06 1.21 1.29 1.18 1.09 1.34 1.30 1.21 1.11 1.11 1.26 1.33 1.32 1.37 1.36 1.28 1.20 1.16 1.16 1.22 1.32 1.44 1.56
0.34 0.29 0.30 0.30 0.31 0.31 0.32 0.37 0.40 0.41 0.43 0.43 0.46 0.52 0.61 0.63 0.64 0.74 0.78 0.85 0.97 1.14 1.22 1.24 1.21 1.24 1.16 1.10 1.18 1.20 1.20 1.21 1.31 1.37 1.28 1.15 1.09 1.09 1.16 1.27 1.37 1.45 1.52
0.31 0.28 0.28 0.28 0.28 0.27 0.29 0.33 0.36 0.37 0.38 0.41 0.47 0.51 0.55 0.59 0.61 0.73 0.84 0.87 0.96 1.02 1.03 1.08 1.07 1.04 1.03 1.03 1.08 1.17 1.20 1.25 1.29 1.23 1.13 1.01 1.03 1.10 1.14 1.19 1.35 1.49 1.62
0.29 0.28 0.26 0.29 0.29 0.27 0.25 0.29 0.34 0.37 0.45 0.50 0.52 0.54 0.54 0.53 0.60 0.75 0.88 0.97 1.11 1.24 1.25 1.11 1.04 1.01 0.98 0.96 0.98 1.03 1.09 1.10 1.13 1.11 1.09 1.07 1.05 1.07 1.09 1.10 1.21 1.30 1.33
0.28 0.27 0.26 0.25 0.26 0.28 0.30 0.28 0.32 0.37 0.46 0.53 0.56 0.56 0.56 0.61 0.62 0.61 0.69 0.87 1.07 1.38 1.62 1.53 1.44 1.31 1.19 1.07 1.01 0.96 0.93 0.96 1.01 1.04 1.06 1.05 1.06 1.11 1.16 1.16 1.19 1.25 1.25
0.25 0.26 0.25 0.25 0.26 0.26 0.29 0.33 0.35 0.34 0.33 0.37 0.42 0.49 0.55 0.59 0.59 0.62 0.66 0.70 0.86 1.19 1.54 1.55 1.52 1.32 1.16 1.07 0.98 0.87 0.81 0.84 0.93 0.96 0.99 1.02 1.03 1.08 1.13 1.14 1.14 1.19 1.22
0.26 0.25 0.26 0.28 0.28 0.32 0.33 0.36 0.46 0.52 0.46 0.37 0.39 0.43 0.52 0.59 0.63 0.74 0.85 0.89 0.91 1.04 1.16 1.19 1.14 1.08 1.01 0.87 0.81 0.80 0.76 0.80 0.90 0.94 0.95 0.96 0.99 1.05 1.07 1.12 1.14 1.16 1.22
0.26 0.29 0.31 0.35 0.34 0.37 0.41 0.45 0.48 0.41 0.39 0.40 0.38 0.39 0.47 0.54 0.61 0.68 0.76 0.76 0.73 0.77 0.79 0.77 0.73 0.73 0.73 0.69 0.66 0.66 0.68 0.72 0.79 0.88 0.93 0.92 0.93 0.98 1.03 1.09 1.17 1.27 1.26
0.22 0.31 0.35 0.42 0.40 0.37 0.44 0.45 0.41 0.40 0.43 0.44 0.41 0.39 0.44 0.47 0.49 0.56 0.62 0.62 0.58 0.56 0.55 0.56 0.56 0.57 0.59 0.60 0.63 0.64 0.65 0.68 0.74 0.81 0.86 0.92 0.94 0.94 0.97 1.04 1.12 1.18 1.20
0.24 0.28 0.33 0.39 0.41 0.39 0.46 0.46 0.43 0.41 0.43 0.46 0.45 0.46 0.49 0.48 0.48 0.51 0.52 0.52 0.54 0.56 0.55 0.55 0.54 0.56 0.59 0.59 0.64 0.69 0.72 0.75 0.77 0.84 0.87 0.91 0.98 1.00 1.01 1.04 1.08 1.09 1.13
0.25 0.28 0.29 0.35 0.39 0.41 0.44 0.44 0.46 0.44 0.41 0.42 0.44 0.47 0.50 0.47 0.45 0.45 0.46 0.48 0.48 0.52 0.58 0.62 0.63 0.62 0.61 0.62 0.67 0.72 0.74 0.76 0.79 0.84 0.91 0.94 0.96 0.99 1.02 1.05 1.09 1.10 1.10
0.25 0.28 0.29 0.31 0.34 0.40 0.41 0.39 0.43 0.44 0.43 0.43 0.45 0.44 0.46 0.45 0.45 0.47 0.47 0.48 0.52 0.55 0.54 0.58 0.63 0.64 0.61 0.61 0.64 0.71 0.78 0.80 0.83 0.89 0.98 0.99 0.96 0.97 1.01 1.01 1.03 1.09 1.11
0.28 0.30 0.32 0.33 0.35 0.39 0.40 0.40 0.41 0.39 0.40 0.45 0.45 0.43 0.46 0.51 0.51 0.48 0.48 0.53 0.56 0.56 0.55 0.54 0.57 0.60 0.62 0.64 0.66 0.68 0.72 0.78 0.85 0.91 0.97 1.03 1.02 0.99 1.02 1.08 1.09 1.11 1.17
0.32 0.34 0.36 0.37 0.40 0.43 0.44 0.43 0.42 0.41 0.42 0.45 0.42 0.42 0.42 0.46 0.50 0.51 0.52 0.56 0.58 0.57 0.56 0.56 0.56 0.58 0.60 0.63 0.66 0.68 0.78 0.84 0.86 0.91 0.98 1.07 1.09 1.06 1.07 1.14 1.21 1.24 1.28
0.35 0.37 0.39 0.41 0.43 0.46 0.47 0.46 0.46 0.45 0.44 0.44 0.41 0.43 0.45 0.49 0.53 0.55 0.57 0.60 0.62 0.61 0.59 0.60 0.60 0.61 0.61 0.61 0.67 0.77 0.82 0.78 0.80 0.88 0.95 1.08 1.17 1.18 1.18 1.19 1.20 1.25 1.30